Regional Weather Roundup
Issued by NWS

Home | Current Version | Previous Version | Text Only | Print | Product List | Glossary On
Versions: 1 2 3 4 5 6 7 8 9 10 11 12 13 14 15 16 17 18 19 20 21 22 23 24 25 26 27 28 29 30 31 32 33 34 35 36 37 38 39 40 41 42 43 44 45 46 47 48 49 50
000
ASUS42 KKEY 060910
RWRKEY

FLORIDA REGIONAL WEATHER ROUNDUP FOR THE FLORIDA KEYS
NATIONAL WEATHER SERVICE KEY WEST FLORIDA
400 AM EST FRI MAR 06 2015

...SOUTH FLORIDA AND THE KEYS...

CITY           SKY/WX    TMP DP  RH WIND       PRES   REMARKS
FORT MYERS     FOG       68  68 100 CALM      30.11S VSB 1/2
SW REGIONAL AP FOG       67  67 100 SE5       30.12S VSB 1/4
NAPLES         FOG       69  69 100 CALM      30.11F VSB 1/4
MIAMI          MOCLDY    73  69  87 CALM      30.13S
WEST KENDALL   CLOUDY    66  66 100 CALM      30.13S
HOMESTEAD      CLEAR     68  66  93 NW7       30.12R
MARATHON       PTCLDY    75  70  84 E5        30.11S
BOCA CHICA NAS PTCLDY    73  69  87 E6        30.11S
KEY WEST INTL  PTCLDY    75  71  87 E7        30.12S

...INTERNATIONAL WEATHER...

CITY           SKY/WX    TMP DP  RH WIND       PRES   REMARKS
NASSAU BAHAMAS PTCLDY    75  73  94 CALM      30.12F
CANCUN MEXICO  PTCLDY    77  73  88 E5        30.06F
COZUMEL MEXICO CLEAR     66  66 100 CALM      30.05F

ADJACENT COASTAL WATERS...

STATION/POSITION TIME  SKY/WX   TEMP    WIND        PRES    WAVE
                                AIR SEA DIR/SP/G            HT/PER
                 (UTC)          (F)     (DEG/KT/KT) (MB)    (FT/S)
PULASKI SHOAL LI 0800            74      90/  3/  3 1019.6F
SAND KEY         0850            75     100/  8/  9 1019.7S
SOMBRERO KEY     0900            75     120/  7/  7 1020.2F
LONG KEY         0800            75 78  130/  9/  9 1020.4F
MOLASSES REEF    0900            76 76  120/  9/ 10 1019.5F
FOWEY ROCKS      NOT AVBL
Buoy 42080       NOT AVBL

$$



USA.gov is the U.S. government's official web portal to all federal, state and local government web resources and services.